Theta_e
287 287 287 287 287 287 287 287 287 287 287 287 287 286 286 286 286 285 284 283 282 282 282 281 281 281 281 281 282 282 282 282 282 281 282 281 281 281 280 280 280 280 279 279 279 279 279 279 279 279 279 280 280 280 280 281 281 281 281 282 283 284 285 286 286 286 286 287 287 287 287 287 288 288 289 290 290 291 291 291 292 292 293 293 293
287 287 287 286 287 287 287 287 287 286 286 286 286 286 285 285 285 284 283 282 281 281 281 281 281 281 281 281 281 281 280 280 280 280 280 280 280 280 279 279 279 279 279 278 278 278 278 278 278 278 279 279 279 280 280 280 280 281 281 281 282 283 284 285 285 285 285 286 286 286 286 286 286 287 287 288 289 290 290 290 291 291 291 292 292
287 287 287 287 286 287 286 286 286 286 286 286 285 285 285 284 284 283 282 281 281 280 280 280 280 280 280 280 280 279 279 279 279 278 278 278 278 278 277 277 278 278 278 278 278 278 278 278 278 278 278 278 279 279 279 279 280 280 280 281 282 282 282 283 284 285 285 285 285 285 285 286 286 286 286 286 286 288 289 289 290 290 290 291 291
287 287 287 286 286 286 286 286 285 285 285 285 285 285 284 284 283 282 281 281 280 280 280 280 280 280 279 279 279 278 278 278 277 277 277 276 276 276 276 276 276 276 277 277 277 277 277 278 278 278 278 278 278 279 279 279 279 280 280 280 281 281 281 282 283 283 284 284 284 284 285 285 285 285 285 286 286 286 287 288 289 289 290 290 290
287 286 286 286 286 285 286 285 285 285 285 285 285 284 284 283 283 282 281 281 280 280 280 280 280 280 279 279 279 278 277 277 277 276 276 276 275 275 275 275 275 275 276 276 276 277 277 277 278 278 278 278 278 278 278 279 279 279 279 280 280 281 281 281 282 282 283 283 283 283 284 284 284 285 285 285 286 286 286 287 287 288 289 289 290
286 286 286 285 285 285 285 285 285 285 285 285 284 284 283 283 282 282 281 281 280 280 280 280 280 280 279 279 278 278 277 276 276 276 275 275 274 274 274 274 274 274 275 275 275 276 276 276 277 277 277 277 278 278 278 278 278 278 279 279 280 280 281 281 281 282 282 282 282 283 283 283 284 284 284 285 285 285 286 286 286 287 288 288 289
286 286 286 285 285 285 285 285 285 285 284 284 283 283 282 282 281 281 280 280 280 280 280 280 279 279 278 278 277 277 276 276 275 275 274 273 273 273 273 273 273 273 273 273 274 274 274 275 275 275 275 276 276 276 277 277 278 278 278 279 279 280 281 281 281 282 282 282 282 282 282 283 283 283 284 284 285 285 285 286 286 286 287 287 288
287 286 286 285 285 285 285 285 284 284 284 283 282 282 281 281 281 280 280 279 279 279 279 279 278 278 277 277 276 276 275 275 274 274 273 272 272 272 272 272 272 272 272 272 272 273 273 273 274 274 274 275 275 276 277 277 278 278 279 279 279 280 280 281 281 281 281 282 282 282 282 282 282 283 283 284 284 285 285 285 285 285 286 286 287
287 286 286 285 285 285 285 284 284 283 283 282 281 281 280 280 280 279 279 279 279 279 278 278 277 277 276 276 275 275 274 274 273 273 272 271 271 271 271 272 272 272 272 272 272 272 272 273 273 273 274 274 275 275 276 276 277 277 278 278 278 279 279 280 280 280 281 281 281 281 281 282 282 282 282 283 283 284 284 285 285 285 286 286 286
287 286 286 285 285 285 285 284 284 283 282 281 281 280 280 279 279 279 278 278 278 278 277 277 276 276 275 275 274 274 273 273 273 272 271 270 271 271 271 271 271 272 272 272 272 272 272 272 272 273 273 273 274 274 275 275 276 276 277 277 277 278 279 279 279 280 280 281 281 282 282 282 282 282 282 282 283 283 284 285 285 285 285 285 285
286 286 286 285 285 285 285 284 283 282 282 281 280 280 279 279 279 278 278 278 278 277 277 276 275 275 274 274 274 273 273 273 272 271 270 270 271 271 271 272 271 271 271 271 271 271 271 271 271 271 271 272 272 272 273 273 274 274 275 276 276 277 278 278 279 279 280 280 281 281 282 282 282 283 283 283 283 283 284 284 284 285 285 284 285
286 286 285 285 285 285 284 283 283 282 281 280 280 279 279 278 278 278 278 278 277 277 276 275 275 274 274 273 273 273 273 273 272 271 269 269 271 272 271 271 271 271 271 271 270 270 270 270 270 270 270 270 270 270 271 271 271 272 273 274 275 275 276 276 277 277 278 278 279 279 280 280 281 282 282 283 283 283 283 284 284 284 284 284 285
285 285 285 285 284 284 284 283 282 281 280 279 279 279 278 278 278 278 277 277 276 276 275 275 274 273 273 273 273 273 273 273 272 270 269 269 270 271 271 271 271 270 270 269 269 269 269 269 269 269 269 269 270 270 269 270 270 271 271 272 273 273 274 274 275 275 276 276 277 277 278 278 279 280 281 282 283 283 283 284 284 284 284 284 285
285 284 284 284 283 283 282 282 280 280 279 278 278 278 278 277 277 277 277 276 276 275 275 274 273 273 273 273 273 273 273 273 271 269 268 268 270 271 271 270 269 269 269 268 268 268 268 268 268 269 269 269 269 269 269 270 270 271 271 271 272 272 273 273 274 274 274 275 275 275 276 276 277 278 278 279 280 281 282 283 283 284 284 284 285
284 283 283 283 283 282 281 281 280 279 278 278 278 277 277 277 276 276 276 275 275 274 273 273 273 272 272 272 273 273 273 272 271 269 268 268 270 271 270 269 268 268 268 268 268 268 268 268 268 268 269 269 269 269 270 270 271 271 271 271 271 272 272 272 273 273 274 274 274 275 275 275 276 276 277 277 278 278 279 280 281 282 283 284 284
283 283 283 282 282 281 281 280 279 278 278 277 277 277 276 276 276 275 275 274 274 273 272 272 272 272 272 272 272 273 273 272 270 268 267 268 270 269 269 268 268 268 268 268 268 268 268 268 268 268 269 269 269 270 270 271 271 271 272 272 272 272 272 273 273 273 274 274 275 275 276 276 276 277 277 278 278 279 279 279 281 282 282 283 283
283 283 282 282 281 281 280 279 278 278 277 277 277 276 276 275 275 274 274 273 273 272 272 272 272 272 272 272 271 272 272 271 269 268 267 268 269 269 268 268 268 268 268 268 268 268 268 269 269 269 269 269 269 270 271 272 273 273 273 273 273 273 273 274 274 274 274 274 274 275 275 276 276 277 277 278 278 278 279 279 280 281 282 283 283
282 282 282 281 281 280 279 278 277 277 277 276 276 275 275 274 274 273 273 272 272 272 271 271 271 271 271 271 271 271 271 270 269 267 267 267 268 269 269 269 269 269 269 269 269 269 269 269 269 270 270 270 271 272 273 273 274 274 274 274 274 274 274 274 274 274 274 274 274 274 274 275 275 275 276 276 276 277 277 277 278 279 281 282 283
282 282 281 280 280 279 278 277 276 276 276 275 274 274 274 273 273 272 272 272 271 271 271 271 271 271 271 271 270 270 270 270 269 268 267 267 268 269 269 269 269 269 269 269 269 269 269 270 270 271 271 272 272 273 274 274 274 274 274 274 274 274 274 274 274 274 274 274 274 274 274 274 275 275 275 275 275 276 276 276 276 277 278 280 282
281 281 280 279 279 278 277 276 275 275 275 274 273 273 273 272 272 272 272 271 271 271 270 270 270 270 270 270 270 270 269 269 269 268 267 267 269 269 270 270 269 269 270 270 270 270 271 271 271 271 272 272 273 274 274 274 274 274 274 275 275 275 275 275 275 275 275 275 275 275 275 275 275 275 275 275 275 275 275 275 276 276 277 278 279
280 280 279 279 278 277 276 275 275 274 274 273 273 272 272 272 272 272 271 271 270 270 270 269 269 269 269 269 270 270 269 268 268 267 267 268 269 270 270 270 270 271 271 271 271 271 272 272 272 272 272 273 273 274 274 275 275 275 275 275 275 275 275 276 276 276 276 276 276 276 275 275 275 275 275 275 275 275 275 275 276 276 276 277 278
280 279 279 278 277 276 275 274 274 273 273 272 272 272 272 271 271 271 271 270 269 268 268 268 268 268 268 269 269 269 269 268 267 267 267 268 269 270 271 271 272 272 272 272 272 272 272 272 272 272 273 273 274 274 275 275 276 276 276 276 276 276 276 276 276 276 276 275 275 275 275 275 275 274 274 274 275 275 275 275 275 276 276 277 277
279 279 278 277 276 275 274 273 273 273 272 272 271 272 272 271 271 271 270 269 267 266 266 266 266 266 267 268 268 268 268 268 267 267 268 268 270 271 271 272 272 273 273 273 273 273 273 273 273 273 273 274 274 275 275 275 276 276 276 276 276 276 276 276 276 275 275 275 275 274 274 274 274 274 274 274 274 274 274 274 275 275 276 276 277
278 278 277 276 275 274 273 273 272 272 272 271 271 271 271 271 270 270 269 268 266 265 265 265 264 264 266 266 266 267 267 267 268 268 268 269 270 271 271 272 272 273 273 273 273 273 273 273 273 274 274 275 275 275 275 275 275 275 275 275 275 276 276 276 275 275 275 274 274 274 274 274 273 273 273 274 274 274 274 274 274 274 275 276 276
277 277 276 275 274 273 272 272 272 272 271 271 271 271 271 270 270 269 268 267 265 264 264 264 263 264 264 264 265 266 267 267 268 268 269 269 270 271 271 272 273 273 273 273 273 273 273 274 274 275 274 275 275 275 275 275 275 275 275 275 275 275 274 274 274 273 273 273 273 273 273 273 273 273 273 273 273 273 274 274 274 274 274 274 275
277 276 275 274 273 272 271 272 271 271 271 270 270 270 270 269 268 268 268 266 265 264 263 263 263 264 264 265 265 267 267 268 269 269 269 269 270 271 272 272 273 273 273 273 273 273 274 274 274 274 274 274 274 274 274 274 274 274 274 273 273 273 272 272 272 272 272 272 272 272 273 273 273 273 273 273 273 273 273 273 274 274 274 275 275
276 275 273 272 271 271 271 271 271 270 270 270 270 270 270 269 267 267 267 266 264 263 263 263 263 264 265 266 267 267 268 269 269 269 269 270 271 272 272 273 273 273 273 273 273 273 273 273 272 272 272 272 272 272 272 272 272 271 271 271 271 271 271 271 272 272 272 272 272 273 273 273 273 273 273 273 273 274 274 273 274 274 274 275 275
274 273 272 271 271 270 270 270 270 270 270 270 270 270 270 269 267 267 267 266 264 263 263 263 264 265 266 267 268 269 269 269 269 269 270 271 272 273 273 272 272 272 271 272 272 271 271 271 271 270 270 270 270 270 270 270 270 270 270 270 270 271 271 271 272 272 272 273 273 273 273 273 274 274 274 274 274 274 274 274 274 274 274 275 276
273 272 271 271 270 269 269 269 269 269 269 269 269 269 269 269 267 267 268 267 265 264 264 265 266 267 268 268 269 269 269 269 269 270 271 272 272 272 272 271 271 270 270 270 270 269 269 269 269 268 268 268 268 268 268 269 269 269 269 269 269 270 270 271 272 272 273 273 273 274 274 274 274 274 274 274 274 274 274 274 274 275 275 276 277
272 271 270 270 269 269 268 268 268 268 268 269 269 269 269 269 267 266 266 267 266 265 266 267 268 269 269 269 269 269 269 269 270 270 271 272 272 271 271 270 270 269 269 268 267 266 265 265 266 266 266 266 267 267 267 267 267 267 267 267 267 268 269 270 271 272 273 273 274 274 274 274 274 274 274 274 274 274 275 275 275 276 276 277 277
271 271 270 269 269 268 268 268 268 268 268 268 268 268 269 269 269 267 266 265 265 266 267 267 268 269 270 269 269 268 269 269 270 270 271 271 271 270 270 269 268 267 267 266 264 263 263 263 263 264 264 264 265 265 265 265 265 265 265 265 266 267 268 270 270 271 272 273 274 274 274 274 274 274 274 274 275 275 275 276 276 276 277 277 278
271 271 270 269 268 268 267 267 268 268 268 267 267 266 266 267 269 270 268 266 265 266 267 268 268 268 268 268 268 268 268 268 269 270 271 270 269 269 269 267 266 266 265 263 261 261 261 261 262 262 262 263 263 263 263 263 263 264 264 264 265 266 267 268 269 270 272 274 274 274 274 274 274 275 275 275 275 276 276 277 277 278 279 279 279
271 271 269 268 267 267 267 267 267 267 267 267 266 266 264 263 264 266 269 269 268 267 267 267 267 267 267 267 267 267 268 268 269 270 270 269 268 268 267 266 265 264 263 262 261 260 260 260 261 261 261 261 261 261 262 262 262 263 263 264 265 266 266 267 268 270 272 274 275 275 275 275 275 275 275 276 276 277 278 278 279 280 280 280 280
270 269 268 267 267 267 267 267 266 266 266 266 265 265 264 263 262 261 263 266 268 269 269 268 266 265 265 265 266 266 267 268 269 269 269 268 267 266 266 266 266 264 262 261 260 260 260 260 260 261 261 261 261 261 261 262 262 262 263 263 264 265 265 266 267 269 272 274 275 275 275 275 275 276 276 276 277 278 279 279 280 280 281 281 281
269 268 267 266 266 267 266 266 266 266 266 265 265 264 263 263 262 260 260 260 262 264 268 269 268 265 264 264 264 265 266 267 268 268 267 266 266 265 265 266 266 264 262 261 260 260 260 260 260 260 260 260 261 261 261 262 262 262 263 263 264 264 265 266 267 268 271 273 273 274 275 275 276 276 277 277 278 279 279 279 280 280 281 281 281
268 267 266 266 266 266 266 265 265 265 265 265 264 264 263 262 261 261 261 260 259 260 263 267 269 268 266 265 265 265 265 266 267 267 266 264 264 263 263 263 262 261 262 261 260 260 260 260 260 260 260 260 261 261 261 262 262 262 263 263 264 264 265 266 267 268 270 271 271 271 272 273 274 275 276 277 277 278 279 279 280 280 280 281 281
267 266 266 266 265 265 265 265 265 265 264 264 263 263 262 262 261 261 260 260 260 260 261 264 265 267 267 266 265 265 266 266 266 265 265 264 264 263 263 261 260 260 260 260 260 260 260 260 260 260 260 261 261 261 261 262 262 263 263 264 264 264 265 266 267 268 268 269 269 269 270 271 272 273 274 275 276 277 278 279 279 280 280 280 281
266 265 265 265 265 264 264 264 264 264 264 263 262 262 261 262 261 261 260 260 260 260 261 262 262 264 265 266 265 265 265 265 265 265 265 265 264 263 262 261 260 259 259 260 260 259 259 260 260 260 260 261 261 261 262 262 263 263 264 264 264 265 265 266 266 267 267 268 268 268 269 270 271 272 273 274 275 276 277 278 279 279 280 280 280
265 265 264 264 264 264 264 264 264 264 263 262 262 261 261 261 261 261 260 260 260 260 260 261 262 263 263 264 264 264 263 264 264 264 264 264 263 262 262 261 260 260 260 260 260 260 260 260 261 261 261 261 261 261 262 262 263 264 264 264 265 265 265 266 266 266 266 267 267 267 268 269 270 271 272 273 274 275 276 277 278 278 279 279 279
264 264 264 263 263 263 263 263 264 264 263 263 262 262 261 261 261 261 260 260 260 260 260 261 262 264 263 263 263 263 263 263 263 263 263 263 263 263 262 262 261 261 261 261 260 260 260 261 261 261 261 261 261 261 262 263 263 264 264 265 265 265 265 266 266 266 266 266 266 267 267 268 269 270 271 272 273 273 274 275 276 277 278 278 279
264 264 263 263 263 263 263 263 263 264 263 263 262 262 262 262 261 261 260 260 260 260 260 261 263 264 263 262 262 263 263 263 262 262 263 263 263 263 263 262 262 262 262 261 261 261 261 261 261 261 261 261 261 261 262 262 263 264 265 265 265 265 266 266 266 266 266 266 266 266 267 267 268 269 270 271 271 272 273 274 275 276 277 277 278
263 263 263 263 263 262 262 263 263 263 263 262 262 262 262 262 261 260 260 260 260 260 261 262 263 264 263 262 262 262 262 262 262 263 263 263 263 263 263 263 262 262 262 261 261 261 261 262 262 262 261 261 261 261 262 262 263 264 265 265 265 266 266 266 266 266 266 266 266 266 266 267 268 268 269 270 270 271 272 273 274 275 275 276 276
262 262 262 262 262 262 262 262 262 262 262 262 263 262 262 261 260 260 260 260 261 260 261 262 263 263 263 263 262 262 262 262 262 263 263 263 263 263 263 263 263 263 262 262 261 261 261 262 262 262 262 262 261 261 262 262 263 264 265 265 266 266 266 266 266 266 265 265 266 266 266 266 267 268 268 269 270 271 272 272 273 274 274 274 274
262 261 261 262 261 261 261 261 261 261 262 262 262 262 261 260 260 260 260 260 261 261 261 262 262 263 263 263 263 262 263 263 262 262 262 262 263 263 263 263 263 263 263 262 262 262 262 262 263 263 263 263 262 262 262 262 263 264 264 265 265 266 266 266 266 265 265 265 265 266 266 267 267 267 268 269 270 270 271 271 272 272 273 273 273
261 261 261 261 261 261 261 261 261 261 261 261 261 261 261 260 260 260 260 261 261 261 261 262 262 262 263 263 263 263 263 263 262 262 262 262 262 263 263 263 263 263 263 262 262 262 262 262 262 263 263 263 263 262 262 262 263 264 264 265 265 266 266 266 266 265 265 265 265 266 267 267 267 267 268 269 269 270 270 271 271 271 272 272 272
261 260 260 261 260 260 261 261 261 260 260 260 260 261 261 261 261 261 261 261 261 261 262 262 262 262 262 263 262 262 262 262 262 262 262 262 262 262 262 263 263 263 263 262 262 262 262 262 262 262 263 263 263 263 263 263 263 263 264 265 265 266 266 266 266 265 266 266 266 266 267 267 267 268 268 268 269 270 270 270 271 271 271 271 272
260 260 260 260 260 260 260 260 260 260 260 260 260 260 261 261 261 261 261 261 261 261 262 262 262 262 262 262 262 262 262 262 262 262 262 262 262 262 262 262 262 262 262 262 262 262 262 262 262 262 262 262 263 263 263 263 263 263 264 264 265 266 266 266 265 266 266 266 267 267 267 267 267 268 268 268 269 269 269 270 270 270 271 271 272
260 260 260 259 259 259 260 260 260 259 260 260 260 260 261 261 261 261 261 261 261 261 262 262 262 262 262 262 262 262 262 261 261 262 262 262 262 262 262 262 262 262 262 262 262 262 262 262 262 262 262 262 262 263 263 263 263 263 263 264 265 265 266 265 265 266 266 267 267 267 267 267 268 268 268 268 268 268 269 269 269 270 270 271 271
259 259 259 259 259 259 259 260 259 259 259 259 259 260 260 260 261 261 261 261 261 261 261 261 262 262 261 261 261 261 261 261 261 261 261 262 262 262 262 262 262 262 262 262 262 262 262 262 262 262 262 262 262 262 262 262 263 263 263 263 264 265 265 265 266 266 266 267 267 267 267 267 267 268 268 268 268 268 268 268 269 269 269 269 269
259 259 258 258 258 259 259 259 259 259 259 259 259 259 260 260 261 261 261 261 261 261 261 261 261 261 261 261 261 261 261 261 261 261 261 261 261 261 261 262 262 262 262 262 262 262 262 262 262 262 262 262 262 262 262 262 262 262 263 263 264 265 265 265 266 266 267 267 267 267 267 267 267 268 268 268 268 268 268 268 268 268 268 268 268
258 258 258 258 258 258 258 258 258 258 259 259 259 259 260 260 260 261 261 261 261 261 261 261 261 261 261 261 261 261 261 261 261 261 261 261 261 261 261 261 261 261 261 261 262 262 262 262 262 262 262 262 262 262 262 262 262 262 262 263 263 264 265 265 265 266 266 267 267 267 267 267 267 268 267 267 267 267 267 267 268 268 268 268 268
Wind_Speed
12 12 11 10 10 10 10 11 12 13 14 16 18 19 21 22 23 23 23 24 25 26 27 27 28 28 29 29 30 30 31 31 31 32 32 32 32 32 32 32 33 33 33 32 30 28 28 28 28 27 26 28 29 28 27 27 27 27 26 25 25 24 24 22 16 18 25 26 28 33 33 32 34 34 33 35 34 32 32 32 32 33 35 37 38
11 10 9 7 7 7 7 8 9 10 11 13 16 18 20 22 23 23 24 25 25 26 27 27 27 28 28 29 29 30 30 31 31 31 31 32 33 32 32 32 33 34 33 34 32 30 29 30 29 27 25 26 27 26 26 26 26 28 27 25 26 26 24 24 22 20 23 24 26 30 31 30 33 33 31 33 34 32 32 32 31 32 34 35 37
8 7 6 4 3 3 4 5 6 8 11 13 16 18 20 22 23 24 24 25 26 26 27 27 27 28 28 28 29 29 29 29 29 30 30 31 32 32 32 31 31 33 33 34 34 33 32 32 31 29 26 27 28 25 25 25 24 25 27 26 26 27 25 24 25 24 25 27 25 27 28 28 31 34 32 32 34 32 32 34 32 32 33 34 36
6 5 4 2 0 1 3 4 6 9 11 14 16 18 20 22 23 25 25 26 27 27 27 28 28 28 29 29 29 29 29 29 29 29 29 30 30 31 31 30 30 30 31 33 34 34 33 34 34 31 29 29 30 27 24 24 24 24 26 27 26 28 28 26 26 27 27 28 27 26 26 27 31 34 33 33 34 33 33 33 33 33 33 33 35
6 5 5 4 3 3 4 5 7 10 12 14 17 19 21 22 24 25 26 27 28 28 28 28 29 29 29 29 30 29 29 30 30 31 30 29 29 30 30 30 30 30 30 31 31 31 31 33 34 32 32 32 32 29 27 26 26 25 26 27 26 27 29 28 28 29 28 29 30 28 26 27 29 31 32 32 33 33 33 33 33 32 32 33 34
9 7 7 7 6 5 5 7 9 11 13 15 17 19 21 23 24 25 26 27 28 28 28 28 28 29 29 29 29 30 30 30 30 30 30 29 29 29 29 29 29 29 30 30 30 30 30 31 33 32 31 33 33 32 31 30 30 29 28 28 27 27 29 30 29 28 28 30 31 30 27 26 27 28 29 29 31 33 33 32 31 30 31 33 34
11 10 10 9 8 7 7 8 10 12 14 15 17 19 20 22 23 24 26 26 27 28 28 28 28 28 29 29 29 29 30 30 29 29 29 28 28 28 29 29 30 30 31 31 31 31 31 32 33 33 32 33 34 34 34 33 32 31 29 28 27 26 27 28 27 27 28 29 30 30 28 26 25 26 26 25 26 31 31 29 29 30 30 31 33
14 13 13 11 10 9 8 9 11 13 14 16 17 19 20 22 23 23 24 25 26 26 27 27 28 28 28 28 29 29 29 29 28 28 28 27 27 28 28 29 30 31 31 32 31 31 31 30 30 30 31 31 32 32 31 31 31 31 30 28 27 26 26 26 25 25 26 27 28 29 28 26 25 25 25 22 22 27 28 26 27 31 30 29 31
15 14 13 12 10 9 9 10 12 14 15 17 18 19 20 21 22 23 24 24 25 25 26 26 27 28 28 28 28 29 28 28 27 27 26 26 26 26 26 26 27 28 28 28 28 27 27 27 26 25 26 27 28 29 29 30 30 32 32 30 29 28 27 26 26 25 25 25 26 28 27 26 24 23 22 20 20 24 27 25 26 32 33 30 33
15 14 13 11 10 9 10 12 14 15 17 18 19 20 21 22 23 23 24 24 25 25 26 26 27 27 28 28 29 29 28 28 27 25 23 23 24 24 24 24 23 23 24 25 25 24 23 23 23 23 24 25 25 25 26 27 28 29 31 31 30 29 28 26 24 23 22 22 23 24 23 24 26 24 22 23 23 23 26 25 26 31 31 26 30
14 13 11 10 10 10 12 13 15 17 18 19 20 21 22 22 23 23 24 24 25 25 26 26 26 27 28 29 29 29 29 29 28 26 23 21 22 22 23 24 23 22 23 23 24 24 23 23 23 23 24 24 24 24 25 26 26 27 28 28 28 29 29 28 26 24 22 21 23 24 22 23 27 26 23 24 23 22 24 25 25 28 26 18 18
13 12 10 10 10 11 13 15 16 17 18 19 20 21 22 22 22 23 24 24 25 25 26 26 27 27 28 29 29 30 30 29 28 26 24 21 21 22 23 23 23 22 22 22 23 24 24 24 23 23 24 23 24 26 27 27 27 27 28 27 27 28 28 29 29 28 26 24 25 27 27 28 30 29 24 22 22 23 24 25 25 25 25 20 17
12 11 10 10 11 12 14 15 16 17 17 18 19 20 21 22 22 23 24 24 25 25 25 26 26 27 27 28 30 30 30 29 28 26 24 22 22 22 22 22 22 22 22 22 23 22 23 24 24 23 23 23 24 25 26 27 27 26 26 26 26 26 26 27 29 29 30 30 29 31 32 30 29 31 30 24 23 24 24 25 25 24 25 25 25
13 11 10 10 11 12 14 15 16 17 17 18 19 20 20 21 21 22 23 24 24 25 25 26 26 26 27 28 29 30 30 29 28 26 24 23 22 22 22 22 21 21 21 21 21 21 21 23 24 24 24 24 24 24 25 26 26 25 25 25 25 25 25 26 26 27 29 30 31 34 36 34 32 36 36 30 27 28 26 26 27 25 26 28 31
12 11 10 10 11 12 14 15 16 17 18 18 19 19 20 21 21 22 23 23 24 24 25 26 26 26 26 27 29 30 30 28 28 26 23 23 23 22 22 21 20 20 20 20 20 21 21 22 24 25 25 25 25 26 27 27 28 28 28 28 29 28 28 27 27 26 27 28 30 33 35 36 36 38 40 37 36 35 34 34 34 33 33 33 33
12 11 10 11 12 13 15 16 17 17 18 19 19 20 20 20 21 22 23 23 23 24 24 25 26 26 26 26 28 30 29 28 27 25 23 23 23 22 22 22 21 21 21 21 20 20 21 22 23 25 26 27 27 28 28 28 29 31 31 31 31 31 30 29 27 27 28 29 30 32 34 35 35 35 37 37 36 35 34 34 34 34 33 30 28
13 11 11 11 12 14 15 16 17 18 18 19 19 20 20 20 21 21 23 24 24 24 25 25 25 25 26 26 27 29 30 28 26 24 23 22 23 23 24 25 24 25 25 24 22 20 21 22 25 28 30 30 30 30 29 30 31 32 32 32 31 31 30 30 29 29 30 30 31 33 34 35 34 35 36 36 34 33 32 30 29 28 26 20 18
14 12 11 12 13 15 16 16 17 17 18 18 19 19 19 20 20 20 21 23 24 24 25 26 25 24 24 25 25 28 30 27 25 24 23 21 23 24 25 27 28 28 27 25 24 24 26 27 28 29 29 29 31 32 31 32 33 33 32 32 31 31 31 33 33 33 33 33 33 34 34 34 33 34 34 34 33 31 29 30 30 28 24 19 17
13 12 12 13 14 15 15 16 16 17 17 18 18 19 19 19 19 20 21 22 24 24 24 25 26 24 23 23 24 25 28 27 24 24 24 22 23 24 26 27 28 29 28 28 29 30 32 32 31 30 30 32 34 34 33 33 34 34 34 33 31 31 32 35 35 35 35 34 35 35 35 34 33 34 34 34 33 31 31 33 34 30 27 27 25
12 12 13 13 14 15 15 16 16 16 17 18 18 18 18 19 19 20 21 22 23 24 24 24 26 25 23 23 23 24 26 27 25 25 24 23 23 24 26 27 29 31 31 31 31 31 33 34 34 32 32 34 35 35 35 35 35 36 36 34 32 33 35 36 35 34 34 33 32 33 33 32 32 32 33 35 34 33 33 34 35 33 31 32 32
13 13 14 14 15 16 15 15 15 16 16 17 18 17 17 18 20 21 21 22 23 24 24 24 25 26 24 23 24 23 24 25 27 27 25 24 23 24 26 27 29 31 31 30 30 31 32 33 33 32 32 34 36 36 36 36 36 37 38 35 34 36 36 34 32 30 29 28 29 30 30 31 32 33 34 36 36 34 34 34 34 36 35 36 36
14 14 14 15 16 16 15 15 15 16 16 16 18 18 17 18 20 20 21 22 23 24 24 23 25 26 25 24 24 24 24 25 28 29 27 25 24 24 25 27 28 30 31 31 31 32 32 34 35 34 33 36 37 38 39 39 39 38 37 36 36 36 35 32 29 28 28 29 31 32 32 33 35 35 35 36 35 34 34 33 33 35 36 40 41
15 15 16 16 16 15 15 15 15 15 15 16 17 18 18 18 19 19 20 21 22 23 23 23 24 26 27 26 25 25 26 27 29 30 28 25 24 24 26 27 28 29 31 33 34 34 35 37 38 36 35 37 39 39 40 40 37 34 33 34 34 34 33 31 29 30 32 32 32 33 34 34 35 36 35 35 35 35 35 35 35 36 36 39 44
16 16 17 16 16 15 15 14 14 14 15 16 17 18 18 18 19 18 18 19 21 23 23 22 23 25 27 28 28 27 28 29 30 30 27 25 25 26 27 28 29 30 32 34 35 35 36 36 37 38 38 39 40 39 38 37 34 32 32 32 32 32 31 29 30 31 32 31 29 31 33 33 33 35 36 36 37 37 38 38 38 38 38 40 42
17 17 16 16 16 15 14 14 14 14 15 15 17 17 17 18 19 18 18 19 20 22 22 21 21 23 25 27 28 28 28 29 30 29 27 26 27 28 28 29 30 30 31 33 34 34 35 35 35 36 37 37 37 36 35 34 32 31 31 32 32 32 31 31 32 31 31 30 30 31 33 34 34 36 37 38 38 39 38 39 39 39 40 41 42
17 17 16 16 15 14 15 15 14 14 15 15 16 16 17 18 19 18 18 19 19 20 21 21 20 21 22 23 25 27 28 28 28 29 29 29 30 31 31 31 30 30 31 33 33 34 34 34 33 33 33 32 31 31 30 31 31 31 32 33 34 34 33 32 32 31 31 31 31 32 34 36 37 39 39 38 37 37 37 36 37 37 37 37 37
18 17 16 15 15 15 15 15 14 14 14 15 15 16 16 17 18 18 18 19 19 20 20 19 19 20 22 24 25 27 26 26 27 29 30 31 31 32 31 31 30 31 31 32 32 33 33 33 33 33 31 28 26 25 26 28 29 30 31 32 32 32 32 32 32 32 32 32 33 35 37 38 38 37 36 34 34 36 36 35 34 35 36 35 33
18 17 16 15 15 15 15 15 15 15 15 15 15 15 15 16 18 18 17 17 19 20 19 18 19 20 23 25 26 25 23 24 27 29 29 30 31 31 30 30 31 31 31 31 33 34 33 31 30 29 29 27 24 23 22 23 25 27 28 29 29 31 31 31 31 31 32 33 35 35 35 35 33 33 32 32 34 37 37 35 34 36 37 33 28
17 16 16 16 16 16 15 15 15 15 15 16 15 15 15 16 17 19 17 16 17 19 20 20 21 22 22 22 22 22 23 24 26 26 26 27 28 29 29 29 30 30 29 30 30 29 27 25 24 23 24 25 24 22 22 22 24 25 25 27 28 29 30 29 29 29 31 31 32 32 32 31 31 32 32 31 34 37 36 33 32 34 35 31 27
18 17 17 16 16 16 16 15 15 15 16 16 16 15 15 14 15 18 18 15 14 17 20 21 21 21 21 21 19 19 22 24 24 24 24 24 25 25 26 27 27 27 26 26 25 23 21 20 19 20 21 21 20 20 22 23 23 24 27 30 31 30 29 28 28 29 30 30 29 29 29 29 29 30 30 29 32 35 34 32 33 33 31 28 26
19 18 17 17 16 16 16 15 15 15 16 16 16 16 16 14 12 14 14 12 11 13 17 19 19 17 17 18 18 18 20 21 22 22 23 22 22 23 24 24 24 23 23 23 22 21 20 18 18 18 19 19 18 19 21 22 23 26 30 32 32 30 28 28 29 31 31 31 29 28 28 28 28 29 30 29 30 32 33 34 34 33 33 31 27
19 19 18 17 16 16 16 16 15 15 16 15 15 15 16 15 14 12 11 10 11 11 11 12 12 12 12 14 17 18 18 19 20 21 21 20 20 21 22 23 21 19 20 22 22 20 20 18 17 18 19 19 19 21 22 23 24 27 29 29 29 29 29 29 32 33 33 31 28 26 26 26 26 27 29 29 29 30 31 31 32 32 31 30 26
20 19 18 17 17 17 16 16 16 16 15 15 14 13 14 14 15 14 12 11 11 10 7 5 7 9 11 14 16 17 17 18 19 19 18 18 18 19 22 22 19 16 18 22 23 21 21 20 19 19 20 21 22 23 24 24 26 28 28 26 27 29 31 32 33 32 30 29 27 26 26 26 26 27 29 29 29 28 27 27 28 29 26 21 20
20 20 19 18 18 17 16 16 16 16 15 15 14 13 13 12 12 14 14 13 12 11 9 7 8 10 12 13 15 16 16 17 17 17 17 17 17 18 21 22 20 18 18 20 20 20 21 21 21 22 23 24 24 25 26 27 27 27 28 28 29 30 32 32 32 30 28 27 27 26 26 26 27 27 27 27 27 26 26 26 26 25 22 18 17
21 21 19 18 18 17 16 16 16 16 16 15 14 13 12 11 11 12 13 14 14 14 14 13 12 13 13 12 12 14 15 15 15 15 16 16 16 18 21 23 25 25 24 23 21 21 21 22 23 24 25 25 26 26 27 28 28 28 28 29 30 30 31 31 30 28 27 26 27 26 25 25 26 26 25 25 25 24 23 24 24 23 21 19 17
22 22 20 19 19 17 16 15 15 16 16 15 14 13 12 12 12 12 13 13 14 16 17 16 14 15 14 12 11 12 13 14 14 15 16 16 16 19 22 24 25 27 28 27 27 25 24 24 25 26 26 26 27 27 28 28 28 29 28 28 28 29 30 30 29 28 27 26 26 26 25 25 25 25 24 24 24 23 23 23 23 22 22 20 18
23 22 21 20 18 17 16 15 15 16 15 15 14 13 13 13 13 14 14 14 14 15 17 17 16 16 15 14 13 13 13 13 14 15 16 16 16 19 22 22 22 23 24 26 26 26 26 26 26 26 27 28 28 29 29 28 29 29 29 28 28 28 28 28 28 28 28 27 27 27 26 25 25 26 25 23 23 23 23 23 23 22 22 21 18
22 21 20 19 18 17 16 16 16 16 16 15 14 14 14 14 14 14 14 14 14 15 16 16 17 17 16 16 15 14 15 17 18 18 17 17 17 19 21 20 20 19 21 23 24 25 26 27 27 27 28 28 29 29 29 29 29 29 29 29 29 28 27 27 27 28 28 28 29 29 28 27 26 26 25 23 23 23 23 23 22 20 20 20 16
22 21 20 19 18 17 17 17 16 16 16 16 15 15 15 15 15 15 14 14 14 15 15 16 16 15 14 15 14 15 17 20 21 22 21 19 18 19 20 21 21 21 22 24 25 25 26 27 28 28 28 28 29 30 29 30 30 29 29 29 29 28 28 28 29 29 29 29 30 31 29 28 28 27 25 23 23 23 23 23 22 20 18 17 15
22 21 20 19 18 18 17 17 17 17 17 17 16 15 16 16 16 15 14 14 15 15 15 16 16 14 12 12 12 14 17 20 21 20 20 20 19 20 20 21 22 23 24 24 25 25 26 27 28 28 28 28 29 29 29 29 29 29 28 27 27 28 28 28 28 29 29 29 30 29 29 28 28 27 25 24 23 24 23 23 22 21 18 15 12
21 21 21 20 19 19 18 18 19 18 18 17 17 16 17 17 16 15 15 15 15 16 15 16 15 13 10 10 10 11 15 18 18 17 17 18 19 19 19 20 21 22 23 24 24 24 25 26 27 27 27 28 28 28 29 28 28 28 28 27 27 27 28 28 27 28 28 29 29 28 29 28 27 26 25 25 25 25 24 22 21 19 17 13 8
21 21 21 20 20 20 20 19 19 18 18 18 18 17 17 17 16 15 15 16 15 16 16 16 15 12 10 9 9 10 13 14 14 14 15 16 17 18 18 19 19 20 21 22 22 23 24 25 26 26 26 26 27 28 28 29 29 29 29 29 28 28 28 29 29 29 29 29 29 30 30 29 27 26 26 25 25 24 23 21 18 16 14 12 7
21 21 21 21 20 20 20 19 18 18 19 18 18 17 17 17 17 16 16 16 16 16 17 17 15 13 11 10 9 10 12 12 12 13 14 15 15 16 17 17 18 19 20 20 20 21 23 24 25 25 24 24 24 25 26 27 28 29 29 29 29 29 29 30 31 32 30 30 31 32 31 29 28 27 26 26 24 23 21 19 16 13 11 9 6
21 21 21 21 20 20 20 19 19 19 19 18 17 17 17 17 17 16 16 16 16 16 16 16 15 13 13 12 11 11 12 12 12 13 14 14 15 15 16 17 17 18 19 19 19 20 21 22 24 25 24 23 22 22 24 25 26 27 28 29 30 30 30 31 33 33 31 31 31 32 31 29 28 27 26 25 23 21 19 17 15 12 10 7 5
21 21 21 21 21 21 20 20 19 19 18 17 18 18 17 17 17 16 16 16 16 16 16 16 14 14 14 13 13 13 13 13 13 14 14 15 15 15 16 17 18 18 19 19 19 19 20 21 23 24 25 25 24 23 23 24 25 25 26 28 29 29 30 32 34 33 31 30 30 30 29 28 27 26 25 24 22 19 18 16 13 11 9 7 6
20 20 21 21 21 21 21 20 19 19 18 18 19 18 18 17 17 16 16 16 15 15 16 15 14 14 15 14 14 14 14 14 15 15 15 15 15 16 16 17 18 19 19 19 19 19 20 20 21 23 24 25 25 23 22 23 24 24 25 27 28 28 30 32 33 32 30 29 28 27 26 26 25 24 23 22 21 18 17 15 13 11 9 8 7
19 19 20 21 21 22 21 21 20 19 19 19 19 19 18 17 16 15 15 15 15 15 15 15 14 15 15 15 15 15 15 16 16 16 16 16 16 16 17 18 19 20 20 20 19 20 20 20 21 22 23 23 24 23 22 22 23 23 24 26 28 29 31 32 32 31 30 28 26 25 23 23 23 22 22 21 20 19 17 15 14 12 10 9 8
18 19 20 21 22 22 22 21 20 20 20 20 20 19 18 17 16 15 15 15 15 15 15 15 15 15 16 16 16 16 16 17 18 18 18 18 17 17 18 19 19 20 21 21 20 20 20 21 21 21 22 23 23 22 21 21 21 22 23 25 27 29 30 30 30 30 29 27 25 23 22 21 20 20 19 19 19 18 17 16 15 14 12 12 11
20 20 21 21 22 22 22 22 21 20 20 20 20 19 18 17 16 16 15 15 15 15 15 15 15 15 16 16 17 17 17 18 19 19 19 19 19 19 19 20 20 21 21 22 22 21 21 21 21 22 22 22 22 22 21 21 21 20 22 24 26 28 29 29 29 29 28 26 24 23 21 20 19 18 17 17 16 16 15 15 15 14 14 14 13
20 20 20 21 22 22 22 22 21 21 21 20 20 20 19 18 17 17 16 15 16 16 16 16 16 16 17 17 18 18 19 20 20 21 21 20 20 20 20 21 21 21 22 22 22 22 22 22 22 22 22 22 22 21 21 21 21 20 20 22 25 26 27 28 27 27 26 25 24 22 20 19 18 17 16 15 15 14 14 14 14 14 14 14 14
17 19 20 21 21 22 22 22 22 22 21 21 21 20 19 19 18 17 16 17 17 17 17 17 17 17 18 18 18 19 20 21 21 21 21 21 21 21 21 21 22 22 23 23 23 23 22 22 22 22 22 22 22 22 22 21 21 21 20 20 22 24 25 26 25 24 23 23 22 20 19 18 17 16 15 14 14 13 13 13 13 13 13 13 12
Wind_Direction
108 99 91 81 70 60 49 41 35 26 20 16 12 9 6 2 359 356 353 351 350 350 349 348 347 346 345 344 343 342 341 340 339 338 336 335 334 333 332 331 329 327 325 324 324 323 320 316 314 314 315 312 309 308 307 306 306 304 303 300 293 290 283 271 267 278 281 280 284 289 293 296 295 295 296 297 297 296 294 290 287 284 282 281 281
116 105 95 82 65 50 35 27 21 13 9 7 5 3 1 358 355 352 350 349 348 347 346 346 345 345 344 344 343 342 342 340 339 338 337 334 332 331 330 329 327 325 323 322 321 321 319 315 313 313 313 309 306 305 304 304 304 301 300 299 294 290 287 278 273 278 283 283 283 286 290 292 291 292 294 296 297 297 295 292 290 287 284 283 282
122 110 100 83 56 31 15 5 359 358 358 358 358 357 355 353 351 348 347 346 345 345 345 345 345 344 343 343 342 342 341 339 338 337 336 334 331 329 328 326 324 322 320 318 318 319 317 314 312 313 313 309 304 304 303 301 300 298 296 296 293 291 290 283 277 276 282 285 284 283 287 288 287 289 292 293 295 294 292 291 290 287 285 284 283
141 140 142 137 172 308 330 338 341 345 348 349 350 349 349 348 346 343 342 342 342 343 343 343 343 342 342 342 341 340 339 337 336 335 333 331 328 326 325 323 320 318 316 314 314 314 314 311 311 313 312 309 306 305 305 301 298 296 293 292 291 290 289 286 279 277 280 285 285 282 283 284 284 287 290 291 291 290 290 290 289 287 285 284 282
177 181 190 205 236 268 296 314 326 333 337 340 341 342 342 342 340 339 337 338 339 339 339 339 339 339 339 339 338 337 336 335 333 332 331 330 327 323 321 319 317 315 312 311 310 310 309 307 307 309 310 308 306 305 305 302 299 296 292 290 289 288 287 285 281 278 277 280 284 285 284 283 282 284 287 289 290 290 289 287 287 287 287 284 281
200 204 212 225 243 262 283 302 316 325 330 333 334 336 336 336 335 334 333 334 334 334 334 335 335 335 335 335 335 334 333 333 332 332 331 330 327 324 321 318 316 313 310 308 307 306 304 303 303 304 304 303 302 303 302 301 299 295 292 290 289 288 285 283 281 280 278 279 283 286 285 283 282 282 283 286 289 290 289 289 287 284 284 284 282
215 218 222 230 244 260 277 296 310 318 323 326 328 330 330 330 330 329 329 331 331 331 331 332 332 333 333 333 333 332 332 333 333 334 333 331 328 324 321 318 314 311 308 306 305 303 301 301 300 299 299 297 296 297 297 297 296 294 292 291 290 288 284 283 281 280 279 280 282 284 285 284 282 281 283 285 285 284 284 286 286 284 282 280 281
221 223 226 232 243 257 276 294 306 313 318 321 323 325 325 326 326 327 328 329 330 330 331 331 331 331 332 332 332 332 333 334 335 336 334 331 327 322 318 316 313 311 309 308 307 306 304 302 301 299 298 296 294 293 293 293 293 293 292 291 291 289 286 285 285 283 282 281 282 284 286 285 282 281 283 281 275 276 278 278 281 283 283 280 279
222 222 224 230 242 258 278 293 302 308 313 316 319 321 323 325 325 327 328 329 330 330 330 330 330 331 332 332 333 333 333 334 337 337 334 329 324 319 316 314 312 311 310 310 310 309 308 306 304 301 300 298 295 293 290 288 288 289 289 290 289 288 285 282 281 280 280 278 279 282 284 283 281 279 279 273 266 271 278 277 275 278 282 282 280
217 217 220 229 244 263 279 290 298 305 311 315 318 320 322 324 325 327 328 328 328 328 329 330 330 331 332 332 333 333 333 335 337 336 332 325 318 314 312 310 310 308 308 309 309 309 309 307 304 303 303 301 299 296 293 290 287 286 286 286 284 284 283 282 280 278 277 276 276 278 279 278 277 275 273 272 272 273 276 274 272 276 281 282 282
209 212 221 233 250 267 280 291 300 306 310 313 315 317 319 321 323 325 325 325 326 327 329 330 331 332 333 333 333 332 332 335 336 334 331 324 314 311 310 308 307 306 306 307 307 307 306 305 304 304 303 301 299 298 296 294 291 288 286 284 282 281 282 284 285 284 283 281 280 280 278 277 278 277 274 274 275 273 273 272 269 272 275 275 281
209 216 227 242 257 274 287 295 301 304 307 308 311 314 316 319 321 322 323 324 325 327 328 329 331 332 333 333 332 330 331 333 334 333 330 323 314 311 309 306 305 304 304 304 304 304 303 303 302 300 299 298 297 297 296 293 291 289 286 285 283 282 281 282 284 286 286 284 282 278 275 277 281 283 282 280 280 278 276 273 268 266 267 265 265
214 221 230 247 265 280 290 295 298 300 304 306 309 313 315 317 320 321 322 323 323 325 327 328 330 332 332 332 330 328 329 332 333 333 330 321 314 312 309 305 304 303 302 302 301 301 301 301 301 299 298 298 298 297 296 294 293 290 288 288 286 285 283 281 281 282 283 283 282 278 276 276 279 281 282 283 283 281 277 273 270 266 265 264 263
213 222 235 253 270 282 288 293 296 300 304 307 309 311 313 316 319 319 319 320 322 324 326 327 328 331 331 330 327 325 327 330 331 332 329 320 315 313 309 305 303 301 300 300 299 299 299 299 299 299 299 299 297 296 294 294 293 293 293 292 291 290 289 286 283 281 278 277 277 277 278 279 279 281 283 284 285 284 282 281 280 275 270 269 269
214 226 241 258 272 282 289 292 296 300 303 305 307 309 311 314 316 317 317 319 321 323 325 325 326 329 330 328 325 323 326 329 330 331 327 319 315 313 309 305 304 302 300 300 299 298 298 297 296 296 297 297 295 294 293 293 292 291 290 289 289 288 287 285 285 282 278 276 274 274 276 279 280 281 282 283 282 280 279 278 278 278 277 275 273
221 232 247 263 274 282 288 290 294 297 300 303 305 307 310 314 316 317 317 318 321 321 322 323 324 327 328 327 324 322 324 328 331 331 327 318 313 313 310 307 306 303 300 300 299 298 297 296 295 294 294 294 293 293 292 292 291 289 286 285 285 284 282 282 284 283 280 279 277 276 278 279 280 281 281 282 281 281 281 278 272 269 268 267 267
227 239 252 265 275 280 284 286 290 294 297 300 303 306 310 313 315 316 316 317 319 320 320 321 323 325 326 326 324 321 322 329 333 331 326 318 314 312 310 308 307 305 302 300 298 295 293 293 293 293 292 290 290 291 291 291 290 287 285 284 284 282 281 283 284 283 281 281 280 280 281 282 282 282 281 282 283 285 290 287 278 272 267 262 259
231 243 255 265 273 277 280 284 288 292 295 299 302 305 308 311 313 315 315 315 316 317 318 318 320 323 324 324 324 321 321 328 333 331 327 319 312 311 310 308 307 305 303 300 297 295 294 293 292 291 289 288 288 290 292 292 291 289 286 284 281 279 279 282 282 281 280 278 276 276 277 279 281 281 281 281 282 283 284 284 283 284 281 274 267
237 248 258 266 272 275 278 283 287 291 294 297 299 302 306 309 311 312 312 312 312 313 315 316 318 322 323 323 323 322 322 327 333 333 328 317 310 310 309 306 304 303 301 299 297 295 295 295 294 292 290 290 291 293 294 293 290 287 285 284 280 277 280 282 281 280 277 275 273 272 272 274 276 278 278 278 279 277 275 276 279 280 278 276 275
243 251 258 265 270 274 278 282 286 289 292 294 296 300 305 308 310 310 310 310 309 310 313 316 316 319 322 323 323 324 324 327 332 334 327 315 309 309 308 304 303 301 298 296 294 293 294 296 297 294 292 292 292 292 292 291 289 286 284 281 278 279 282 282 280 280 278 275 274 274 274 275 276 276 277 277 276 274 272 272 272 272 271 272 274
244 250 259 265 268 272 276 280 283 286 288 292 295 300 306 308 308 308 309 308 308 309 313 317 316 317 321 323 323 326 328 329 332 334 329 316 310 310 307 304 302 299 297 295 294 294 294 295 296 294 292 292 293 292 291 292 292 290 286 283 283 284 285 284 285 288 286 283 282 281 280 280 280 278 277 277 276 274 273 271 269 268 267 266 268
244 251 258 263 266 270 274 276 279 283 287 292 296 300 305 305 305 306 307 307 308 310 313 316 316 316 319 323 324 328 332 333 332 333 329 318 311 310 308 305 304 302 300 298 297 295 295 296 296 295 293 292 292 292 293 295 294 292 291 292 293 293 294 294 295 295 292 288 286 284 283 283 282 280 279 278 277 277 275 273 271 269 266 262 263
243 250 255 260 263 266 269 271 276 282 287 290 293 298 302 302 301 303 305 306 308 309 312 316 316 316 319 323 327 332 336 336 334 332 327 318 312 312 309 306 306 305 301 299 297 297 297 297 296 295 293 292 293 294 297 298 297 296 296 297 297 298 299 300 298 294 290 288 286 283 282 282 281 280 280 279 280 280 278 277 275 273 270 267 264
241 248 252 256 259 262 265 269 274 279 283 287 290 294 299 300 299 302 304 306 306 306 309 313 314 315 319 322 327 333 336 335 333 330 325 318 314 314 311 309 309 306 303 301 300 299 298 296 296 296 297 300 302 302 303 304 303 301 299 299 299 300 300 296 293 291 289 287 284 282 282 283 282 282 282 282 283 283 281 280 278 275 272 272 271
241 247 250 253 256 260 263 266 272 276 279 284 288 293 298 298 299 302 304 304 303 303 306 309 310 313 316 318 323 329 330 329 328 328 325 319 317 317 314 313 312 310 307 304 302 301 300 299 300 301 301 303 304 304 303 303 302 300 299 299 300 299 297 293 291 289 287 284 284 282 283 284 284 284 286 286 285 283 281 280 279 276 273 272 271
242 246 249 252 255 258 262 265 269 273 276 281 286 292 297 298 299 302 303 302 301 300 301 305 308 310 311 313 317 321 323 323 324 325 324 322 322 321 319 316 315 313 311 308 306 306 305 305 305 305 304 304 302 301 301 301 300 300 299 299 299 297 295 292 290 287 285 283 283 283 283 285 286 286 287 285 282 280 279 278 278 276 273 271 269
243 246 248 251 254 257 262 266 268 270 274 280 285 290 295 296 297 299 301 301 300 298 297 300 303 305 307 310 313 315 317 319 320 321 323 323 322 322 320 319 320 320 317 314 313 312 310 309 309 310 310 310 308 306 305 305 304 304 303 302 301 298 295 293 289 286 284 283 283 283 284 286 286 285 283 281 279 278 278 277 275 273 271 269 268
242 245 248 251 252 256 261 266 270 272 275 279 284 290 293 293 294 296 299 300 296 294 294 295 298 302 304 307 309 310 312 315 317 319 321 321 321 321 323 324 326 325 321 318 317 315 313 313 313 315 317 319 318 316 313 312 311 309 307 306 305 302 300 297 291 287 286 285 284 284 284 284 283 281 280 278 277 278 278 276 273 271 269 267 264
241 244 246 248 251 255 259 264 269 274 277 280 284 289 292 295 297 297 299 302 298 293 290 291 297 302 303 302 306 310 311 312 315 317 319 320 321 324 326 328 328 326 324 322 320 319 320 320 320 323 325 325 325 325 324 323 320 316 313 313 312 310 306 302 297 293 291 288 285 283 283 283 282 281 280 277 276 278 279 275 270 268 266 261 257
237 240 243 246 249 253 257 261 266 271 276 282 287 288 289 292 294 294 297 300 294 284 280 282 288 295 297 299 304 306 306 309 313 317 320 322 324 327 328 330 332 332 332 332 331 330 332 331 329 330 330 328 327 326 326 326 324 321 319 318 317 315 310 306 303 301 297 293 288 285 284 283 282 281 280 277 278 280 280 276 271 268 262 255 250
234 238 241 244 247 251 255 259 263 268 273 281 287 291 292 289 286 289 295 296 288 278 276 278 283 288 292 299 306 306 306 310 315 319 323 326 329 331 332 336 341 342 343 345 346 346 344 338 332 332 332 329 327 325 325 325 323 321 320 319 318 317 314 311 310 308 304 299 293 288 285 282 280 281 281 279 280 282 283 280 276 270 264 258 252
234 239 240 241 245 249 254 259 263 266 271 277 283 290 296 298 296 297 298 297 296 295 287 279 279 284 294 305 311 312 313 315 318 322 327 331 332 333 335 341 346 348 350 355 356 352 346 338 330 329 329 327 325 324 323 322 321 320 319 317 316 316 315 313 313 310 305 301 296 291 287 284 281 281 282 281 281 282 281 280 280 278 273 263 253
237 239 238 238 241 246 252 258 262 265 270 275 279 284 291 299 303 305 303 299 301 305 301 272 265 280 300 313 315 316 317 319 322 327 332 335 337 337 336 343 352 354 354 359 358 350 343 338 332 329 328 326 324 323 322 321 320 320 318 315 312 312 313 314 315 311 306 304 301 295 290 287 285 283 283 282 282 281 280 281 285 288 285 268 250
237 238 238 239 241 245 249 255 261 264 268 273 277 280 285 290 297 303 307 308 306 305 305 300 293 299 310 317 317 318 321 323 327 333 336 340 343 340 337 345 359 2 359 360 355 344 339 336 332 330 329 327 325 324 322 322 322 321 319 316 314 313 314 316 315 312 310 312 311 305 298 294 291 288 285 285 284 283 283 286 290 293 290 275 256
235 237 238 239 242 246 249 253 258 263 267 270 273 276 280 284 286 291 298 301 299 299 303 308 312 314 317 319 319 320 325 327 330 336 343 345 344 342 345 353 360 359 356 355 350 344 340 335 331 330 329 327 325 324 322 322 322 322 320 319 318 317 318 317 315 313 316 320 320 316 312 308 304 301 297 293 290 288 287 288 290 292 292 284 268
233 235 236 239 243 247 250 253 256 260 264 268 270 272 274 279 282 284 287 287 287 292 298 306 312 313 314 321 326 326 330 335 335 336 343 348 348 351 358 1 358 353 351 350 347 344 339 335 332 330 329 327 326 325 323 322 322 322 322 320 318 318 318 318 317 318 320 321 322 323 322 319 316 315 312 306 301 297 294 293 293 292 292 289 276
232 234 236 240 244 248 250 252 255 258 261 263 265 268 271 274 275 277 279 280 283 288 295 304 311 310 310 320 330 331 334 340 337 334 341 351 356 0 5 3 355 349 346 344 342 339 335 335 334 332 331 330 329 327 326 324 324 324 325 324 322 319 318 319 320 321 321 320 321 323 323 320 320 319 317 313 309 305 301 299 297 293 291 290 283
233 237 240 242 244 247 249 251 253 255 256 257 259 263 267 269 270 270 272 277 282 286 291 299 306 307 310 318 329 337 341 339 334 333 341 353 359 1 1 358 353 347 342 340 340 337 333 334 336 335 333 332 331 330 329 327 326 326 327 327 327 324 322 322 324 325 324 323 323 323 322 321 321 322 320 316 313 311 308 305 301 295 290 287 283
234 237 239 241 243 246 248 251 252 252 253 254 257 259 261 264 266 268 270 274 278 281 288 294 297 302 310 317 327 340 342 333 326 329 337 347 354 357 358 355 352 349 346 344 343 340 336 336 337 337 335 334 333 332 331 330 328 328 328 328 330 330 329 328 328 328 328 327 326 325 325 323 322 322 321 319 316 316 315 311 307 301 291 282 278
235 237 238 239 241 243 246 248 251 253 254 254 256 258 259 262 264 266 269 273 275 279 286 290 291 298 310 316 324 334 329 318 315 322 332 340 347 354 356 355 353 351 349 346 344 342 339 339 338 336 336 336 335 334 334 332 331 330 329 329 330 331 331 331 329 328 329 328 327 326 325 325 325 324 322 321 322 323 321 318 315 310 302 290 283
239 240 239 240 240 242 243 244 247 251 253 254 255 257 258 261 264 266 267 269 272 277 282 285 288 296 307 311 317 318 308 302 309 321 330 336 343 348 353 354 354 351 349 346 344 343 341 340 339 337 336 337 337 337 336 335 334 333 332 331 331 332 334 334 333 331 331 329 328 328 327 326 327 326 323 324 327 329 329 328 325 320 315 305 291
241 241 241 242 242 241 242 244 247 249 250 251 253 255 258 261 264 264 264 265 269 275 279 282 286 293 299 304 308 303 296 299 310 321 327 333 339 343 348 351 352 350 348 346 344 343 341 341 341 339 338 339 340 340 339 338 337 336 335 334 333 333 335 337 336 335 334 332 331 331 330 329 328 328 328 330 333 334 335 336 334 330 327 321 308
243 243 244 246 245 244 246 248 249 249 248 249 252 255 257 260 260 260 262 264 267 270 274 279 285 290 292 297 301 299 298 305 313 319 324 330 333 337 342 346 347 347 347 346 345 343 342 341 342 342 342 343 344 343 341 338 338 338 337 336 335 334 336 338 339 337 336 335 335 335 335 333 332 333 335 337 339 340 341 343 342 339 337 336 333
244 245 247 249 249 249 250 251 250 250 251 252 254 254 254 256 258 259 260 262 265 267 271 275 282 287 289 293 298 300 302 307 312 316 321 326 328 332 337 339 341 342 343 345 346 345 343 342 343 343 344 346 348 349 345 341 339 339 339 339 337 336 338 340 340 338 337 336 337 339 339 337 336 337 339 342 344 345 347 350 351 351 350 352 359
245 247 250 251 251 251 252 252 252 254 254 253 253 254 254 254 257 258 259 260 263 265 268 272 279 285 288 291 296 299 302 306 310 314 318 321 325 329 332 333 336 337 338 341 345 345 343 343 343 343 344 346 349 351 349 345 342 341 342 342 340 339 340 340 340 340 340 339 339 340 341 341 342 343 345 346 348 349 351 355 358 0 4 11 22
246 250 252 252 253 254 255 256 255 255 255 254 254 255 255 255 256 257 258 259 261 264 267 271 276 281 286 290 293 297 301 304 306 310 315 318 322 325 327 329 330 331 333 337 340 341 342 342 342 342 343 343 346 349 350 348 345 343 343 344 344 343 342 342 342 344 346 345 343 345 346 347 349 351 352 352 354 355 358 1 5 11 18 27 37
251 253 253 254 255 256 257 258 257 255 254 254 255 256 257 257 257 257 257 259 261 263 267 271 275 279 284 288 291 295 300 302 304 308 312 315 319 322 324 325 326 326 328 332 334 337 339 340 339 340 341 342 343 346 348 349 349 346 344 345 346 346 344 343 344 348 351 350 348 349 350 352 355 357 359 0 2 3 6 9 13 19 29 37 50
258 257 256 256 257 257 258 258 256 254 254 255 255 257 259 260 259 259 260 261 263 265 268 272 276 279 283 286 290 294 298 300 303 306 309 312 316 319 319 320 322 322 323 326 329 332 334 335 336 338 339 340 341 342 344 346 348 347 345 344 344 344 343 344 347 350 352 352 353 353 355 357 360 2 4 8 11 12 15 19 22 29 40 48 58
261 259 258 257 257 258 259 259 258 257 258 259 259 259 260 261 261 262 264 265 266 269 271 274 277 280 283 286 290 294 297 298 301 303 306 309 313 315 316 316 318 319 319 321 324 326 328 331 332 333 335 337 339 339 339 340 342 344 345 343 340 340 343 346 349 352 353 354 354 355 357 359 3 6 9 14 18 20 25 29 33 39 47 52 56
259 259 259 259 260 261 261 262 261 261 261 261 260 260 261 262 264 265 267 269 271 272 274 278 281 283 286 288 291 294 296 298 299 301 304 307 309 311 313 313 314 315 316 318 320 322 324 326 328 329 330 333 334 335 336 336 337 339 342 339 335 337 343 346 349 352 355 355 355 357 358 0 5 10 14 19 23 28 33 38 41 45 50 53 54
261 261 261 262 263 264 263 263 262 262 261 261 261 262 263 265 267 269 271 273 274 277 280 282 284 285 287 290 293 294 295 297 298 300 302 305 307 309 311 311 311 313 315 315 317 319 320 322 324 325 326 328 330 332 333 333 332 335 338 336 332 335 341 344 346 351 355 355 356 359 2 3 6 12 17 22 28 33 39 44 48 51 53 56 57